Wind_Speed
3 3 3 3 3 3 3 4 3 3 4 4 3 2 2 3 4 4 3 2 2 1 1 1 0 1 1 1 0 1 1 1 1 2 2 2 2 2 2 2 2 2 1 3 4 4 4 5 6
4 3 3 3 4 4 4 4 4 3 4 3 3 3 2 3 3 3 3 2 2 2 2 1 1 0 1 0 0 1 1 1 1 1 2 2 2 1 1 2 2 2 2 3 4 4 4 5 6
4 4 4 3 3 4 5 4 4 3 4 3 3 3 3 3 3 3 3 3 3 3 2 2 1 1 1 0 0 1 1 1 1 1 1 1 2 1 1 1 2 2 3 3 3 4 4 5 5
4 4 4 4 4 4 4 5 4 4 4 3 3 3 3 4 4 4 4 4 4 4 3 3 3 3 2 1 1 2 2 1 2 2 2 1 1 1 1 1 2 2 3 3 3 3 3 4 4
3 3 4 4 4 5 5 5 5 5 5 4 4 4 4 4 4 5 5 5 5 5 4 4 4 3 3 3 2 2 3 3 3 3 3 2 2 2 2 2 2 2 3 3 3 3 3 3 4
3 4 4 4 5 4 4 5 5 6 5 5 4 5 5 5 5 5 5 6 6 6 5 5 5 5 4 4 4 4 4 4 4 4 4 3 3 3 3 3 3 3 4 4 3 3 4 4 5
4 4 4 4 4 5 5 5 5 6 6 6 5 5 5 5 6 6 6 6 6 6 6 6 6 6 6 5 5 5 5 5 5 5 4 4 4 4 4 4 4 4 4 4 4 4 5 5 5
4 4 4 4 4 4 5 5 5 5 6 6 6 5 6 6 6 6 6 6 7 6 6 6 6 6 6 6 5 5 5 5 5 5 5 5 5 4 4 5 5 5 5 5 5 5 5 5 6
5 5 5 4 4 4 4 5 5 5 5 6 6 6 6 6 6 6 7 7 7 6 6 6 6 6 6 6 6 6 6 6 5 5 5 5 5 5 5 6 6 6 6 6 6 6 7 7 7
5 5 5 5 5 5 4 5 5 6 5 6 6 6 6 6 7 6 6 6 6 6 6 6 6 6 7 7 7 6 6 6 6 6 6 6 6 6 6 6 6 7 7 7 7 8 8 8 8
6 6 6 6 6 6 5 5 5 6 6 6 6 6 6 6 6 7 6 6 6 7 7 7 7 7 7 7 7 7 7 7 7 7 6 6 7 7 7 7 7 7 8 8 8 8 9 9 8
7 6 6 6 6 6 6 6 6 6 6 6 5 6 6 6 6 7 7 7 7 7 7 7 8 8 8 8 8 7 7 6 7 7 7 7 6 7 7 7 7 8 8 8 8 8 9 9 9
7 6 6 6 6 6 6 7 7 7 6 6 6 6 6 6 6 7 7 7 7 7 7 7 8 8 8 8 8 7 7 7 6 7 7 7 7 6 6 7 7 7 7 7 8 8 9 9 9
7 7 6 6 6 6 6 6 7 7 7 7 7 7 7 7 7 7 7 8 8 8 8 8 9 9 8 8 8 8 7 7 6 6 7 7 7 7 6 7 7 7 8 7 7 8 8 8 9
9 8 7 7 6 6 7 7 7 8 8 8 8 8 8 8 8 8 7 8 8 9 9 9 10 10 9 9 9 8 8 7 7 7 7 7 7 7 8 8 8 8 8 8 8 9 8 8 9
10 9 8 7 8 7 8 8 8 8 9 9 9 8 8 8 8 9 8 8 9 9 10 10 10 10 10 9 9 9 8 8 8 7 7 7 8 8 8 9 9 9 9 9 9 8 9 9 9
10 10 9 9 9 8 8 9 10 9 9 10 10 10 9 10 10 10 9 10 10 10 10 10 9 10 10 10 10 10 9 9 9 9 8 8 8 8 8 9 9 10 9 9 9 9 9 10 10
12 11 10 11 10 10 10 10 11 11 10 11 11 11 11 11 11 11 11 11 11 11 11 11 10 10 10 10 11 11 10 10 10 10 10 9 9 9 9 9 10 10 10 10 10 10 10 10 11
12 12 11 11 11 12 12 11 12 12 12 12 12 13 13 13 13 13 12 13 13 12 12 12 12 12 11 11 11 11 11 11 11 11 11 10 10 10 10 10 10 10 10 10 10 11 11 11 12
12 12 12 12 12 13 13 13 13 13 13 13 14 14 14 14 14 14 14 14 14 14 13 13 13 13 12 12 12 12 11 11 12 12 12 11 11 11 11 11 11 10 10 10 11 11 11 12 12
13 13 13 13 14 14 14 14 14 14 14 14 15 15 15 15 15 15 15 15 15 15 14 14 14 14 13 13 13 13 12 12 12 12 13 12 12 12 12 12 12 11 11 11 10 11 12 12 13
14 14 15 15 15 15 16 15 14 15 15 15 15 16 16 16 16 16 16 15 15 15 16 16 16 15 15 15 15 14 13 13 12 13 13 14 14 14 14 14 13 12 12 12 12 12 12 12 12
15 16 16 16 17 17 17 16 15 15 15 16 16 16 17 17 17 17 17 17 16 16 16 17 17 17 17 16 16 16 15 14 13 13 14 15 15 15 15 15 14 13 13 13 13 13 13 13 13
17 17 18 18 18 18 17 18 16 16 15 16 16 17 18 19 18 18 18 18 18 18 18 18 18 18 18 18 17 17 17 16 15 15 16 16 16 16 16 16 15 15 15 14 14 14 14 14 14
19 19 19 20 20 20 19 19 18 17 17 17 17 18 19 20 19 19 19 18 18 18 19 19 19 19 19 19 18 19 18 18 17 18 18 17 18 18 17 17 17 17 16 15 15 15 16 15 15
20 20 21 21 22 21 20 20 19 18 18 19 19 19 20 20 20 20 20 19 19 19 20 20 20 20 20 20 20 20 20 20 19 19 20 19 19 19 19 18 18 17 17 17 16 16 17 17 17
21 22 21 22 23 23 22 21 19 19 19 20 20 20 20 20 20 21 21 21 21 21 21 21 21 21 21 21 22 22 22 21 21 21 21 21 21 21 20 20 19 18 18 18 17 18 18 18 17
21 22 22 23 22 22 22 21 20 19 20 20 21 21 21 21 21 21 22 22 22 22 22 22 22 22 22 22 23 23 23 24 23 23 22 22 22 22 22 21 21 21 20 20 20 20 19 18 18
21 21 22 23 23 23 23 22 20 21 21 21 21 22 22 21 22 22 22 23 23 23 22 23 23 24 24 24 25 24 24 24 25 24 24 23 23 23 22 23 23 22 22 21 21 20 20 20 20
22 22 22 22 22 23 24 23 21 21 21 21 22 22 22 22 23 23 23 23 23 23 24 24 24 25 25 26 26 26 26 26 26 26 26 25 24 24 24 24 24 24 24 24 23 22 22 22 22
Wind_Direction
253 258 251 239 233 227 220 215 216 220 209 207 213 208 199 190 184 183 172 157 156 149 146 137 158 170 193 205 255 333 338 10 6 2 359 10 17 11 9 359 348 332 302 264 265 273 272 270 262
258 258 256 243 236 236 230 221 219 228 228 224 224 228 221 209 196 189 188 180 183 183 185 179 184 175 168 210 298 346 334 347 3 2 360 11 20 13 5 358 348 335 315 287 282 282 277 273 267
264 253 253 252 243 237 231 224 228 237 234 229 230 232 234 229 215 209 207 204 212 221 224 228 226 217 211 250 308 339 323 333 325 344 6 7 349 349 338 341 335 326 320 308 298 289 286 279 276
268 262 257 258 255 241 234 228 224 231 227 226 229 235 235 233 225 221 223 224 225 231 235 232 228 229 237 249 286 303 293 292 304 304 325 344 347 344 314 330 334 337 323 316 312 296 290 288 286
272 266 263 261 258 248 243 236 230 230 227 230 235 237 240 233 228 228 229 233 236 239 241 237 232 237 244 252 272 289 299 290 288 296 305 311 315 301 285 281 308 318 324 325 317 298 290 292 288
272 272 267 260 254 250 244 237 236 232 233 238 239 238 238 234 232 234 235 236 239 241 241 239 238 245 251 257 267 279 286 285 280 274 281 292 291 280 270 268 279 289 303 314 312 300 292 295 297
270 265 264 262 259 254 246 239 234 236 237 236 239 237 237 232 235 235 236 237 238 240 240 241 243 248 255 262 267 270 279 280 276 265 268 277 274 266 260 266 270 280 291 296 297 296 294 293 292
277 271 266 264 257 253 248 241 235 237 238 234 237 238 237 235 235 234 233 238 241 242 242 242 244 251 256 259 265 267 272 276 276 268 259 261 262 263 258 261 267 275 282 286 289 292 293 294 295
275 271 269 262 256 255 248 243 238 242 244 241 241 240 239 237 235 234 235 238 242 244 248 250 251 257 258 262 264 262 264 268 269 264 258 260 260 260 261 263 265 269 275 279 284 287 292 291 293
275 274 272 268 258 254 251 246 244 242 242 245 244 239 239 237 237 235 237 240 243 246 249 253 257 260 261 263 263 263 264 265 264 261 257 260 260 262 263 266 269 270 275 278 283 286 289 287 290
275 274 275 270 263 257 251 244 242 237 237 241 242 237 235 237 239 238 241 246 248 251 251 252 257 262 265 266 266 267 269 268 266 263 262 265 266 265 266 267 269 269 271 273 281 281 285 285 285
273 274 272 269 264 260 255 247 239 237 239 236 233 231 232 236 242 246 249 249 252 252 252 252 255 259 262 265 268 267 265 268 270 267 267 269 272 271 267 267 268 269 271 275 282 285 287 287 284
268 271 272 268 264 260 254 244 242 244 238 232 230 230 232 238 245 247 248 251 253 254 255 255 257 258 258 259 261 261 260 264 268 267 267 270 274 275 275 271 268 268 272 280 286 286 286 288 286
266 269 269 268 265 260 255 251 248 245 242 239 239 240 241 244 246 251 252 254 256 255 254 256 258 260 257 257 256 255 253 259 265 267 267 267 271 274 280 279 276 273 274 278 285 288 286 286 285
265 267 265 265 261 257 257 256 253 251 250 248 248 247 247 246 247 251 254 256 257 256 255 256 258 259 259 257 255 254 255 257 261 265 266 269 269 273 278 282 280 279 276 275 280 285 286 288 289
261 261 261 263 261 262 262 261 259 257 256 252 250 247 246 248 249 252 254 256 257 258 257 257 258 257 255 255 255 256 256 257 258 264 267 268 272 276 281 281 280 281 280 281 283 284 283 285 288
258 258 261 262 262 262 264 266 264 262 260 255 252 252 253 254 255 255 257 257 258 259 259 255 254 254 252 253 255 258 259 258 259 263 268 271 273 275 278 277 276 279 280 279 283 284 284 284 284
258 258 262 265 266 268 267 267 268 267 264 259 256 256 257 258 259 259 259 258 258 258 259 259 255 256 254 254 258 261 262 258 258 261 266 269 271 275 277 276 278 280 277 278 283 285 284 284 283
260 260 261 265 268 270 271 270 270 269 267 265 262 260 260 260 260 260 259 258 258 259 258 257 255 257 256 257 259 261 260 259 258 258 261 264 268 276 281 282 283 281 280 280 280 282 283 283 281
258 260 261 264 269 271 273 273 272 273 269 267 266 263 260 261 262 261 259 256 257 257 256 256 255 257 256 257 259 261 261 260 258 256 258 262 268 274 279 280 282 282 280 281 282 282 280 279 279
258 262 264 266 269 273 274 272 272 271 269 267 265 264 261 261 262 263 261 259 258 257 254 253 255 255 255 256 259 262 261 263 261 258 258 264 270 275 276 278 279 282 282 283 284 283 278 277 278
262 262 264 265 266 270 274 274 272 270 268 266 265 264 262 261 262 262 260 258 259 259 257 255 254 255 256 257 259 261 258 258 259 260 262 266 269 272 275 277 278 281 284 284 286 285 283 282 281
262 262 264 266 267 269 271 273 271 271 270 269 268 266 264 263 263 263 261 259 260 261 260 256 255 255 255 256 258 258 256 257 263 265 265 267 269 271 273 274 276 281 281 283 286 284 287 285 284
263 264 266 267 267 269 272 273 271 272 274 272 271 269 268 267 266 264 261 259 260 261 261 256 256 255 254 254 255 256 255 256 261 265 267 267 268 269 269 271 273 279 280 279 281 283 286 287 288
262 264 266 268 268 270 272 273 273 274 274 274 273 271 270 268 267 266 263 262 261 260 259 255 254 254 254 255 256 256 257 256 258 262 265 267 269 269 267 269 272 276 277 276 278 281 284 286 287
262 263 266 269 272 273 272 273 273 273 274 275 275 272 272 271 269 268 266 264 263 262 259 257 255 254 255 256 256 257 257 258 261 263 264 265 269 270 269 273 273 274 276 278 278 281 283 284 285
263 264 267 270 273 274 273 272 273 274 274 274 275 273 272 272 270 267 266 264 264 264 262 260 258 257 256 256 257 258 258 260 263 265 266 267 268 269 269 271 272 274 274 276 278 279 281 282 282
264 265 265 267 273 275 275 275 274 273 274 275 274 273 271 270 270 268 265 263 263 263 262 262 260 259 258 257 258 259 260 261 261 263 264 266 268 267 269 270 270 271 274 274 275 278 279 280 282
262 262 264 268 272 277 279 280 278 277 277 277 276 273 271 270 270 269 266 263 263 263 264 263 261 260 260 260 260 260 261 261 261 263 263 265 266 265 267 268 269 268 270 274 274 275 277 279 281
263 264 265 269 272 275 278 279 281 281 279 278 276 274 273 270 269 268 267 264 263 263 264 264 262 260 259 260 261 262 264 263 262 263 263 263 264 265 267 267 267 268 269 271 273 272 274 277 279
Height
5854 5854 5855 5857 5858 5858 5858 5859 5859 5860 5861 5861 5862 5862 5863 5864 5865 5868 5867 5866 5866 5867 5867 5867 5867 5867 5867 5868 5868 5868 5868 5868 5868 5868 5868 5868 5869 5869 5869 5869 5869 5869 5869 5870 5870 5871 5871 5871 5872
5854 5854 5856 5857 5857 5857 5858 5858 5859 5860 5860 5861 5861 5862 5863 5863 5864 5865 5865 5866 5866 5867 5867 5867 5867 5867 5868 5868 5868 5868 5868 5868 5868 5868 5868 5868 5868 5868 5869 5869 5869 5869 5869 5870 5870 5870 5870 5870 5871
5854 5854 5856 5856 5856 5857 5858 5858 5859 5859 5860 5860 5861 5862 5862 5863 5864 5865 5865 5865 5866 5866 5867 5867 5867 5867 5868 5868 5868 5868 5868 5868 5868 5868 5868 5868 5868 5868 5868 5868 5868 5869 5869 5869 5869 5869 5869 5869 5870
5854 5855 5856 5856 5856 5857 5857 5858 5859 5859 5859 5860 5861 5861 5862 5863 5863 5864 5864 5865 5866 5866 5866 5866 5867 5867 5867 5867 5867 5867 5867 5867 5867 5867 5867 5868 5868 5868 5868 5868 5868 5868 5869 5868 5868 5869 5869 5869 5869
5854 5854 5855 5855 5855 5856 5856 5857 5858 5859 5859 5860 5860 5861 5861 5862 5862 5863 5864 5864 5865 5865 5866 5866 5866 5867 5867 5867 5867 5867 5867 5867 5867 5867 5867 5867 5867 5867 5867 5868 5868 5868 5868 5868 5868 5868 5868 5868 5868
5854 5854 5854 5854 5855 5856 5856 5856 5857 5858 5858 5859 5860 5860 5860 5861 5861 5862 5863 5864 5864 5865 5865 5865 5865 5866 5866 5866 5866 5866 5866 5866 5866 5866 5866 5866 5866 5867 5867 5867 5867 5867 5867 5867 5867 5867 5867 5867 5867
5854 5853 5853 5854 5854 5855 5855 5856 5856 5856 5857 5858 5858 5859 5859 5860 5861 5861 5862 5862 5863 5863 5864 5864 5864 5865 5865 5865 5865 5865 5865 5865 5865 5865 5865 5865 5865 5866 5866 5866 5866 5866 5867 5866 5866 5866 5866 5866 5866
5852 5853 5853 5853 5854 5854 5855 5855 5855 5855 5856 5857 5858 5858 5858 5859 5859 5860 5861 5861 5862 5862 5862 5863 5863 5863 5864 5864 5864 5864 5864 5864 5864 5864 5864 5864 5865 5865 5865 5865 5865 5865 5865 5865 5865 5865 5865 5865 5864
5852 5853 5852 5853 5853 5853 5853 5854 5854 5854 5855 5856 5856 5857 5857 5858 5858 5859 5859 5860 5860 5861 5861 5861 5862 5862 5862 5863 5863 5863 5863 5863 5863 5863 5863 5863 5863 5864 5864 5864 5864 5864 5864 5864 5864 5864 5863 5863 5863
5851 5852 5852 5852 5852 5852 5852 5853 5853 5854 5854 5854 5855 5855 5856 5856 5857 5857 5858 5859 5859 5859 5860 5860 5860 5861 5861 5861 5861 5861 5861 5861 5861 5861 5862 5862 5862 5862 5862 5862 5863 5863 5862 5862 5862 5862 5862 5862 5861
5850 5850 5851 5851 5851 5851 5851 5852 5852 5853 5853 5853 5854 5854 5855 5855 5856 5856 5857 5857 5858 5858 5858 5859 5859 5859 5859 5859 5859 5860 5860 5860 5860 5860 5860 5860 5860 5861 5861 5861 5861 5861 5861 5861 5861 5860 5860 5860 5859
5849 5849 5849 5850 5850 5850 5850 5851 5851 5852 5852 5853 5853 5853 5854 5854 5854 5855 5855 5856 5856 5856 5857 5857 5857 5857 5857 5858 5858 5858 5858 5858 5858 5858 5859 5859 5859 5859 5859 5859 5859 5859 5859 5859 5859 5858 5858 5858 5857
5848 5848 5848 5848 5849 5849 5849 5850 5850 5851 5851 5851 5852 5852 5853 5853 5853 5853 5854 5854 5855 5855 5855 5855 5856 5856 5856 5856 5856 5856 5857 5857 5857 5857 5857 5857 5857 5857 5857 5857 5857 5857 5857 5857 5857 5856 5856 5856 5855
5846 5847 5847 5847 5848 5848 5848 5849 5849 5849 5850 5850 5851 5851 5851 5852 5852 5852 5853 5853 5853 5853 5853 5854 5854 5854 5854 5854 5855 5855 5855 5855 5855 5855 5855 5856 5856 5856 5856 5856 5855 5855 5855 5855 5855 5854 5854 5854 5853
5845 5845 5846 5846 5846 5847 5847 5848 5848 5848 5848 5849 5849 5850 5850 5850 5850 5851 5851 5851 5851 5851 5852 5852 5852 5852 5852 5853 5853 5853 5853 5853 5854 5854 5854 5854 5854 5854 5854 5854 5854 5853 5853 5853 5853 5852 5852 5851 5851
5843 5844 5845 5845 5845 5845 5847 5847 5846 5846 5847 5847 5847 5848 5848 5848 5848 5849 5849 5849 5849 5849 5850 5850 5850 5850 5850 5851 5851 5851 5851 5852 5852 5852 5852 5852 5852 5852 5852 5852 5852 5851 5851 5851 5850 5850 5850 5849 5849
5841 5842 5842 5843 5843 5844 5845 5844 5844 5844 5845 5845 5845 5846 5846 5846 5846 5846 5846 5847 5847 5847 5847 5847 5847 5848 5848 5849 5849 5849 5849 5850 5850 5850 5850 5850 5850 5850 5850 5850 5850 5849 5849 5849 5848 5848 5847 5847 5847
5839 5840 5840 5841 5841 5842 5842 5842 5842 5842 5842 5843 5843 5843 5843 5844 5844 5844 5844 5844 5844 5844 5845 5845 5845 5845 5846 5846 5846 5847 5847 5847 5847 5848 5848 5848 5848 5848 5848 5848 5847 5847 5847 5846 5846 5846 5845 5845 5844
5837 5837 5838 5839 5839 5839 5839 5840 5840 5840 5840 5840 5840 5840 5841 5841 5841 5841 5841 5841 5841 5842 5842 5842 5842 5843 5843 5844 5844 5844 5844 5845 5845 5845 5845 5846 5846 5846 5846 5845 5845 5844 5844 5844 5843 5843 5842 5842 5841
5834 5835 5836 5836 5836 5836 5837 5837 5837 5837 5837 5837 5837 5837 5837 5837 5838 5838 5838 5838 5838 5839 5839 5839 5839 5840 5840 5841 5841 5841 5842 5842 5842 5842 5843 5843 5843 5843 5843 5843 5842 5842 5841 5841 5840 5840 5839 5839 5838
5832 5833 5833 5833 5833 5833 5834 5835 5835 5834 5834 5834 5834 5834 5834 5834 5834 5834 5834 5835 5835 5835 5835 5836 5836 5836 5837 5838 5838 5838 5839 5839 5839 5839 5840 5840 5840 5840 5840 5840 5839 5839 5839 5838 5838 5837 5836 5836 5835
5829 5830 5830 5830 5830 5830 5831 5831 5832 5831 5830 5830 5830 5830 5830 5830 5830 5830 5830 5830 5831 5831 5831 5832 5832 5833 5833 5834 5835 5835 5835 5835 5835 5836 5836 5837 5837 5837 5836 5836 5836 5836 5835 5835 5834 5834 5833 5833 5832
5825 5826 5826 5826 5826 5827 5827 5827 5828 5827 5827 5827 5826 5826 5826 5826 5826 5826 5826 5826 5827 5827 5827 5827 5828 5828 5829 5830 5831 5831 5832 5832 5832 5832 5833 5833 5833 5833 5833 5833 5832 5832 5832 5832 5831 5830 5830 5829 5828
5821 5822 5822 5822 5822 5823 5823 5823 5823 5823 5822 5822 5822 5821 5821 5821 5821 5821 5822 5822 5822 5822 5822 5823 5823 5824 5825 5825 5826 5827 5827 5828 5828 5828 5829 5829 5829 5829 5829 5829 5828 5828 5828 5828 5827 5826 5826 5825 5824
5816 5817 5817 5817 5817 5818 5818 5817 5819 5818 5818 5817 5817 5817 5817 5817 5816 5816 5817 5817 5817 5817 5817 5818 5818 5819 5820 5820 5821 5822 5822 5823 5823 5824 5824 5824 5825 5824 5824 5824 5824 5824 5824 5823 5823 5822 5822 5821 5820
5812 5812 5813 5813 5812 5813 5813 5812 5814 5813 5812 5812 5812 5812 5811 5811 5811 5811 5811 5811 5811 5812 5812 5812 5813 5813 5814 5815 5815 5816 5817 5818 5818 5818 5819 5819 5820 5820 5820 5820 5819 5819 5819 5819 5818 5818 5817 5816 5815
5806 5806 5807 5807 5806 5807 5807 5808 5808 5808 5807 5807 5806 5806 5806 5806 5805 5805 5805 5805 5805 5805 5806 5806 5807 5807 5808 5809 5810 5810 5811 5812 5812 5813 5813 5813 5814 5814 5814 5814 5814 5814 5814 5814 5813 5813 5812 5812 5811
5801 5801 5801 5801 5800 5800 5801 5802 5803 5802 5801 5801 5800 5800 5800 5800 5799 5799 5799 5799 5800 5800 5800 5800 5800 5801 5802 5802 5803 5804 5805 5806 5806 5807 5807 5808 5808 5808 5809 5809 5809 5809 5809 5808 5808 5808 5807 5806 5806
5796 5796 5795 5795 5795 5795 5794 5798 5797 5796 5795 5795 5794 5794 5794 5793 5793 5793 5793 5793 5793 5793 5794 5794 5794 5794 5795 5796 5796 5797 5798 5799 5800 5800 5801 5801 5802 5802 5802 5803 5803 5803 5803 5802 5802 5802 5801 5801 5800
5789 5789 5790 5790 5789 5789 5788 5792 5790 5789 5788 5788 5787 5787 5787 5787 5786 5786 5786 5787 5787 5787 5787 5787 5787 5788 5788 5789 5790 5790 5791 5792 5792 5793 5794 5794 5795 5795 5796 5796 5796 5796 5796 5796 5796 5796 5795 5795 5794